Regional Weather Roundup
Issued by NWS

Home | Current Version | Previous Version | Text Only | Print | Product List | Glossary Off
Versions: 1 2 3 4 5 6 7 8 9 10 11 12 13 14 15 16 17 18 19 20 21 22 23 24 25 26 27 28

000
ASUS45 KCYS 280810
RWRWY

WYOMING REGIONAL WEATHER ROUNDUP
NATIONAL WEATHER SERVICE CHEYENNE WY
200 AM MDT SAT MAY 28 2016

NOTE:  "FAIR" INDICATES FEW OR NO CLOUDS BELOW 12,000 FEET
WITH NO SIGNIFICANT WEATHER AND/OR OBSTRUCTIONS TO VISIBILITY.

WYZ001-280900-
YELLOWSTONE NATIONAL PARK

CITY           SKY/WX    TMP DP  RH WIND       PRES   REMARKS
LK YELLOWSTONE   N/A     32  31  96 CALM      30.06S
W YELLOWSTONE  NOT AVBL

$$
WYZ002>013-054>058-071-098>099-280900-
NORTHERN WYOMING

CITY           SKY/WX    TMP DP  RH WIND       PRES   REMARKS
JACKSON        MOCLDY    45  30  57 W9        30.01S
CODY           FAIR      45  43  93 E7        29.95R
GREYBULL       FAIR      53  47  79 W9        29.91S
WORLAND        CLOUDY    52  47  83 CALM      29.92R
SHERIDAN       MOCLDY    49  46  90 SW5       29.90R
BUFFALO        MOCLDY    49  45  86 CALM      29.93F
GILLETTE       FAIR      43  41  93 W5        29.90S
HULETT         FAIR      46  43  87 W3        29.91S
NEWCASTLE      FAIR      46  39  76 CALM      29.91S

$$
WYZ014>020-022>026-101>103-280900-
CENTRAL WYOMING

CITY           SKY/WX    TMP DP  RH WIND       PRES   REMARKS
BIG PINEY      CLOUDY    39  36  89 E3        30.04R
PINEDALE       FAIR      34  32  93 W3        30.05R
DUBOIS         FAIR      41  30  65 CALM      30.00S
LANDER         FAIR      45  33  63 E5        29.92S
RIVERTON       FAIR      45  39  79 NW6       29.94R
CASPER         FAIR      41  36  82 CALM      29.94S
DOUGLAS          N/A    N/A N/A N/A MISG      29.93R

$$
WYZ021-027>030-104>119-280900-
SOUTHERN WYOMING

CITY           SKY/WX    TMP DP  RH WIND       PRES   REMARKS
EVANSTON       FAIR      42  33  70 SW8       30.05S
KEMMERER         N/A     41  34  75 NW3       30.06R
FORT BRIDGER   MOSUNNY   43  37  81 NW5       30.08S
ROCK SPRINGS   FAIR      44  35  70 SW10      30.02S
DIXON          PTSUNNY   43  39  86 E5        30.07S
RAWLINS        CLOUDY    45  36  70 SW10      30.01R
SARATOGA       PTSUNNY   41  39  93 SE7       30.04F
LARAMIE        FAIR      34  32  92 S5        30.00S WCI  30
CHEYENNE       FAIR      46  36  68 NW6       29.96R
TORRINGTON     FAIR      44  43  96 SE5       29.90R
PINE BLUFFS    FAIR      37  36  93 W5        29.94S WCI  34

$$




USA.gov is the U.S. government's official web portal to all federal, state and local government web resources and services.